Regional Weather Roundup
Issued by NWS

Home | Current Version | Previous Version | Text Only | Print | Product List | Glossary Off
Versions: 1 2 3 4 5 6 7 8 9 10 11 12 13 14 15 16 17 18 19 20 21 22 23 24 25 26 27 28

000
ASUS45 KCYS 230210
RWRWY

WYOMING REGIONAL WEATHER ROUNDUP
NATIONAL WEATHER SERVICE CHEYENNE WY
800 PM MDT TUE AUG 22 2017

NOTE:  "FAIR" INDICATES FEW OR NO CLOUDS BELOW 12,000 FEET
WITH NO SIGNIFICANT WEATHER AND/OR OBSTRUCTIONS TO VISIBILITY.

WYZ001-230300-
YELLOWSTONE NATIONAL PARK

CITY           SKY/WX    TMP DP  RH WIND       PRES   REMARKS
LK YELLOWSTONE   N/A     63  26  24 W3        30.38R
W YELLOWSTONE  NOT AVBL

$$
WYZ002>013-054>058-071-098>099-230300-
NORTHERN WYOMING

CITY           SKY/WX    TMP DP  RH WIND       PRES   REMARKS
JACKSON        FAIR      72  30  21 W7        30.26S
CODY           FAIR      75  40  28 N3        30.16R
GREYBULL       FAIR      83  32  16 W6        30.04S
WORLAND        FAIR      74  40  29 E3        30.06F
SHERIDAN       FAIR      68  51  54 SW3       30.09F
BUFFALO        FAIR      77  31  18 CALM      30.18S
GILLETTE       FAIR      72  32  23 NW8       30.13S
HULETT         FAIR      70  41  35 E8        30.15S
NEWCASTLE      FAIR      75  43  31 E13       30.13S

$$
WYZ014>020-022>026-101>103-230300-
CENTRAL WYOMING

CITY           SKY/WX    TMP DP  RH WIND       PRES   REMARKS
BIG PINEY      FAIR      71  32  23 N10       30.30S
PINEDALE       FAIR      68  32  26 NW3       30.31S
DUBOIS         FAIR      72  18  13 W10       30.29R
LANDER           N/A    N/A N/A N/A MISG      30.15F
RIVERTON       FAIR      78  29  16 NE5       30.16R
CASPER         FAIR      75  38  26 SE3       30.15S
DOUGLAS        FAIR      71  49  45 E6        30.16S

$$
WYZ021-027>030-104>119-230300-
SOUTHERN WYOMING

CITY           SKY/WX    TMP DP  RH WIND       PRES   REMARKS
EVANSTON       FAIR      67  41  38 SW15      30.35S
KEMMERER         N/A    N/A N/A N/A W8        30.34R
FORT BRIDGER   MOCLDY    72  37  27 W16G23    30.36R
ROCK SPRINGS   FAIR      77  28  16 W12       30.27R
DIXON          FAIR      75  33  22 SW12G20   30.30S
RAWLINS        NOT AVBL
SARATOGA       FAIR      72  34  25 CALM      30.29S
LARAMIE        FAIR      65  53  65 SE13      30.30R
CHEYENNE       FAIR      71  55  56 S8        30.25S
TORRINGTON     FAIR      75  50  41 E13       30.11R
PINE BLUFFS    FAIR      72  52  49 S10G16    30.21S

$$




USA.gov is the U.S. government's official web portal to all federal, state and local government web resources and services.